{"data":{"norad_id":65334,"epoch":"2026-05-25T04:53:20.067072Z","epoch_age_seconds":51260,"freshness":"FRESH","line1":"1 65334U 25189M   26145.20370448  .00017711  00000+0  60852-3 0  9992","line2":"2 65334  53.1570 211.1884 0001050  79.9710 280.1409 15.30208654 42822","mean_motion":15.30208654,"eccentricity":0.000105,"inclination_deg":53.157,"raan_deg":211.1884,"arg_perigee_deg":79.971,"mean_anomaly_deg":280.1409,"bstar":0.00060852,"rev_number":4282,"period_min":94.104813499506,"perigee_km":474.46963100282,"apogee_km":475.90882951117,"semimajor_km":6853.326230257,"source":"CELESTRAK","updated_at":"2026-05-25T13:38:20.760327Z"}}